COSMOS 2428

Satellite information

Favourite Embed

Satellite Type and Status

PAYLOADIN ORBIT

Key statistics

Satellite COSMOS 2428 at a glance.

Uptime

6583

Days in orbit

Revolutions

≈ 14.1

Per day

Orbit

LEO

Low Earth Orbit

Inclination

70.9

Latest

Satellite identification and parameters

Extended collection of information and parameters for COSMOS 2428.

Object identification

Identified? True

Debris? False

Object name: COSMOS 2428

International designator: 2007-029A

Object number (NORAD): 31792

Object ID (CCSDS): 31792

Country: COMMONWEALTH OF INDEPENDENT STATES (CIS)

Current information (Y/N): Y

RCS size: LARGE

Orbital parameters

Period: 101.92 minutes

Inclination: 70.9407 deg

SMA: 7227.681 km

Apoapsis: 853.491 km

Periapsis: 845.601 km

RAAN: 359.9509 deg

Eccentricy: 0.0005458

Argument of periapsis: 249.9948 deg

Mean anomaly: 110.0586 deg

Mean motion: 14.12876816 rev/day

Mean motion (dot): 0.00000375 rev/day2

B* drag term: 0.0002273 1/REarth

Two-line elements (TLE)

Creation date: July 6, 2025, 6:05 p.m.

Reference frame: TEME

Reference center: EARTH

Epoch: July 6, 2025, 2:02 p.m. UTC

TLE line 0: 0 COSMOS 2428

TLE line 1: 1 31792U 07029A 25187.58537922 .00000375 00000-0 22730-3 0 9996

TLE line 2: 2 31792 70.9407 359.9509 0005458 249.9948 110.0586 14.12876816929339

Live tracking on map

Real-time ground track for satellite COSMOS 2428.

In-orbit conjunctions

There are no conjunctions computed for COSMOS 2428, at the moment. Check back to stay up to date, as we update our databases every day.

Go to all conjunctions

Associated space launch

Second generation ELING satellite

COSMOS 2428 was lifted into orbit during the mission ‘Zenit 2M | Tselina-2 23’, on board a Zenit 2M space rocket.

The launch took place on June 29, 2007, 10 a.m. from 45/1.

For more information about the launch, click the button.

Launch to space Zenit 2M | Tselina-2 23
Zenit 2M | Tselina-2 23

Agency: N/A

Status: Launch Successful

Launch date: June 29, 2007, 10 a.m. UTC

Rocket: Zenit 2M

Launch pad: 45/1

Location: Baikonur Cosmodrome, Republic of Kazakhstan

...

Latest news about this satellite

There are no fresh news available about this satellite. Check back as we update our databases every day.


Newsletter sign-up

Weekly statistics, charts and insights to help you stay on top of the space industry.